Notices

What's New in latest Release from April 7th, 2021:

- Updated Glossary, including Speed of Maximum Gust, and Total Hourly Precipitation

- Updated national and regional climate services offices contacts and prices information

- Addition of station inventory lists for 1981-2010, 1971-2000, and 1961-1990 Normals.

Please note that as of June 10, 2021 UTC dates are available for all years 2004-present, and DBA is working on populating the remaining years (2003 to 1953).

If you haven't already, please take our survey and provide feedback about our website: https://eccc.sondage-survey.ca/f/LanguageSelection.aspx?s=442ca660-fcf1-47c0-95a9-59707d6fd709

Hourly Data Report for November 09, 2018

CARBERRY CS
MANITOBA
Current Station Operator: ECCC - MSC

49°54'20.900" N
99°21'26.800" W
383.50 m
5010547
71170
WZE

Download Data

Hourly Data (November 2018)
Hourly Data Report for November 9, 2018
TIME
LST
Temp Definition
°C
Dew Point Definition
°C
Rel Hum Definition
%
Precip. Amount Definition
mm

Wind Dir Definition
10's deg

Wind Spd Definition
km/h
Visibility Definition
km
Stn Press Definition
kPa
Hmdx Definition


Wind Chill Definition


Weather Definition


00:00 -12.5 -15.6 77 0.0 36 13   98.52   -19 LegendNANA
01:00 -12.4 -15.6 77 0.0 34 11   98.53   -18 LegendNANA
02:00 -14.4 -17.3 79 0.0 32 10   98.55   -21 LegendNANA
03:00 -13.1 -16.7 74 0.0 33 17   98.57   -21 LegendNANA
04:00 -12.9 -16.4 75 0.0 32 14   98.60   -20 LegendNANA
05:00 -11.6 -15.3 74 0.0 33 14   98.62   -18 LegendNANA
06:00 -11.3 -15.1 73 0.0 32 15   98.66   -18 LegendNANA
07:00 -11.2 -15.1 73 0.0 33 14   98.63   -18 LegendNANA
08:00 -11.2 -15.0 73 0.0 32 13   98.64   -18 LegendNANA
09:00 -11.0 -14.8 74 0.0 31 13   98.64   -17 LegendNANA
10:00 -10.5 -14.9 70 0.0 32 11   98.64   -16 LegendNANA
11:00 -10.2 -14.9 69 0.0 31 11   98.61   -16 LegendNANA
12:00 -10.4 -14.9 70 0.0 29 12   98.57   -16 LegendNANA
13:00 -9.8 -16.8 57 0.0 23 5   98.46   -13 LegendNANA
14:00 -9.9 -16.5 58 0.0 23 3   98.37   -12 LegendNANA
15:00 -10.2 -15.7 64 0.0 26 10   98.29   -15 LegendNANA
16:00 -11.1 -16.7 63 0.0 23 10   98.24   -17 LegendNANA
17:00 -12.7 -17.4 68 0.0 21 10   98.16   -18 LegendNANA
18:00 -14.5 -18.5 72 0.0 21 7   98.09   -19 LegendNANA
19:00 -16.3 -19.3 78 0.0 19 10   97.99   -23 LegendNANA
20:00 -16.4 -19.1 80 0.0 17 9   97.89   -22 LegendNANA
21:00 -16.0 -19.1 77 0.0 16 12   97.80   -23 LegendNANA
22:00 -16.5 -19.1 81 0.0 15 14   97.71   -24 LegendNANA
23:00 -16.1 -18.8 80 0.0 16 13   97.62   -24 LegendNANA

Notes on Data Quality.

Legend

  • E = Estimated
  • M = Missing
  • NA = Not Available*
  • [empty] = Indicates an unobserved value
Date modified: